Location: Castillon
(43.0896°N, 0.2156°E)
Time: 18:39:00
(UTC+00:00)

CARTOSAT-1 - Pass Details

Date: 16 June 2021
Orbit: 616 x 619 km, 97.8° (Epoch: 31 July)

Event Time Altitude Azimuth Distance (km) Brightness Sun altitude
Exits shadow 21:10:57 19° 155° (SSE) 1,469 4.9 -13.0°
Maximum altitude 21:13:57 69° 75° (ENE) 665 3.6 -13.3°
Drops below altitude 10° 21:18:16 10° 352° (N) 1,993 7.1 -13.8°
Sets 21:20:28 0° 350° (N) 2,904 8.2 -14.1°
